TimeCST,TemperatureF,Dew PointF,Humidity,Sea Level PressureIn,VisibilityMPH,Wind Direction,Wind SpeedMPH,Gust SpeedMPH,PrecipitationIn,Events,Conditions,WindDirDegrees,DateUTC
12:55 AM,45.3,43.9,95,30.16,10.0,North,4.6,-,N/A,,Clear,10,2012-11-20 06:55:00
1:55 AM,44.1,43.0,96,30.15,10.0,North,5.8,-,N/A,,Clear,10,2012-11-20 07:55:00
2:55 AM,44.1,43.0,96,30.15,10.0,North,6.9,-,N/A,,Clear,360,2012-11-20 08:55:00
3:55 AM,43.9,43.2,97,30.14,10.0,North,6.9,-,N/A,,Clear,360,2012-11-20 09:55:00
4:55 AM,44.8,44.1,97,30.15,10.0,North,6.9,-,N/A,,Clear,360,2012-11-20 10:55:00
5:55 AM,44.6,43.9,97,30.16,10.0,North,8.1,-,N/A,,Clear,350,2012-11-20 11:55:00
6:55 AM,46.4,45.9,98,30.18,10.0,North,6.9,-,N/A,,Clear,10,2012-11-20 12:55:00
7:55 AM,52.3,49.8,91,30.18,10.0,North,6.9,-,N/A,,Clear,360,2012-11-20 13:55:00
8:55 AM,60.6,53.4,77,30.19,10.0,North,4.6,-,N/A,,Clear,360,2012-11-20 14:55:00
9:55 AM,66.7,55.8,68,30.18,10.0,Calm,Calm,-,0.00,Rain,Light Rain,0,2012-11-20 15:55:00
10:15 AM,66.2,55.4,68,30.17,10.0,Calm,Calm,-,N/A,,Mostly Cloudy,0,2012-11-20 16:15:00
10:24 AM,66.2,55.4,68,30.17,10.0,Calm,Calm,-,N/A,Rain,Light Rain,0,2012-11-20 16:24:00
10:34 AM,68.0,55.4,64,30.16,10.0,Calm,Calm,-,N/A,,Mostly Cloudy,0,2012-11-20 16:34:00
10:45 AM,66.2,55.4,68,30.16,10.0,ESE,3.5,-,N/A,,Light Drizzle,110,2012-11-20 16:45:00
10:51 AM,68.0,55.4,64,30.16,10.0,Calm,Calm,-,N/A,,Light Drizzle,0,2012-11-20 16:51:00
10:55 AM,67.3,56.5,68,30.16,10.0,Calm,Calm,-,0.00,,Mostly Cloudy,0,2012-11-20 16:55:00
10:56 AM,68.0,57.2,68,30.16,10.0,Calm,Calm,-,N/A,,Mostly Cloudy,0,2012-11-20 16:56:00
11:06 AM,66.2,57.2,73,30.15,10.0,South,5.8,-,N/A,,Light Drizzle,170,2012-11-20 17:06:00
11:16 AM,68.0,57.2,68,30.15,10.0,South,5.8,-,N/A,,Mostly Cloudy,180,2012-11-20 17:16:00
11:19 AM,68.0,57.2,68,30.15,10.0,South,5.8,-,N/A,Rain,Light Rain,190,2012-11-20 17:19:00
11:33 AM,68.0,57.2,68,30.14,10.0,South,4.6,-,N/A,Rain,Light Rain,170,2012-11-20 17:33:00
11:34 AM,68.0,57.2,68,30.14,10.0,SSE,6.9,-,N/A,,Mostly Cloudy,160,2012-11-20 17:34:00
11:37 AM,68.0,57.2,68,30.14,10.0,South,5.8,-,N/A,Rain,Light Rain,170,2012-11-20 17:37:00
11:54 AM,66.2,57.2,73,30.13,10.0,South,5.8,-,N/A,,Mostly Cloudy,190,2012-11-20 17:54:00
11:55 AM,66.9,57.0,70,30.13,10.0,South,6.9,-,0.00,,Light Drizzle,180,2012-11-20 17:55:00
11:57 AM,66.2,57.2,73,30.13,10.0,South,8.1,-,N/A,,Mostly Cloudy,180,2012-11-20 17:57:00
12:00 PM,66.2,57.2,73,30.13,10.0,South,6.9,-,N/A,,Mostly Cloudy,180,2012-11-20 18:00:00
12:01 PM,66.2,57.2,73,30.12,10.0,South,6.9,-,N/A,,Mostly Cloudy,190,2012-11-20 18:01:00
12:05 PM,66.2,57.2,73,30.12,10.0,South,8.1,-,N/A,,Mostly Cloudy,180,2012-11-20 18:05:00
12:11 PM,68.0,57.2,68,30.12,10.0,South,6.9,-,N/A,Rain,Light Rain,170,2012-11-20 18:11:00
12:20 PM,66.2,57.2,73,30.12,10.0,South,5.8,-,N/A,,Mostly Cloudy,180,2012-11-20 18:20:00
12:28 PM,68.0,57.2,68,30.12,10.0,Calm,Calm,-,N/A,Rain,Light Rain,0,2012-11-20 18:28:00
12:33 PM,68.0,57.2,68,30.12,10.0,Calm,Calm,-,N/A,Rain,Light Rain,0,2012-11-20 18:33:00
12:50 PM,69.8,57.2,64,30.10,10.0,South,8.1,-,N/A,,Mostly Cloudy,180,2012-11-20 18:50:00
12:54 PM,69.8,57.2,64,30.11,10.0,SSW,5.8,-,N/A,,Mostly Cloudy,210,2012-11-20 18:54:00
12:55 PM,69.1,57.6,67,30.11,10.0,SW,5.8,-,0.00,,Mostly Cloudy,230,2012-11-20 18:55:00
1:33 PM,66.2,57.2,73,30.09,10.0,SW,8.1,-,N/A,,Mostly Cloudy,220,2012-11-20 19:33:00
1:55 PM,67.5,57.0,69,30.09,10.0,SW,5.8,-,N/A,,Mostly Cloudy,220,2012-11-20 19:55:00
2:50 PM,68.0,57.2,68,30.09,10.0,West,3.5,-,N/A,Rain,Light Rain,280,2012-11-20 20:50:00
2:55 PM,68.2,57.2,68,30.09,10.0,Calm,Calm,-,0.00,Rain,Light Rain,0,2012-11-20 20:55:00
2:59 PM,68.0,57.2,68,30.09,10.0,WSW,3.5,-,N/A,,Mostly Cloudy,250,2012-11-20 20:59:00
3:25 PM,66.2,55.4,68,30.09,10.0,North,6.9,-,N/A,,Light Drizzle,10,2012-11-20 21:25:00
3:39 PM,68.0,53.6,60,30.09,10.0,North,9.2,-,N/A,,Mostly Cloudy,360,2012-11-20 21:39:00
3:43 PM,68.0,53.6,60,30.09,10.0,NNE,6.9,-,N/A,,Light Drizzle,20,2012-11-20 21:43:00
3:45 PM,66.2,53.6,64,30.09,10.0,NNE,6.9,-,N/A,,Overcast,20,2012-11-20 21:45:00
3:55 PM,66.7,54.0,63,30.09,10.0,NNE,5.8,-,0.00,,Overcast,20,2012-11-20 21:55:00
4:08 PM,66.2,53.6,64,30.09,10.0,NE,3.5,-,N/A,Rain,Light Rain,40,2012-11-20 22:08:00
4:17 PM,66.2,55.4,68,30.09,10.0,North,6.9,-,N/A,,Overcast,360,2012-11-20 22:17:00
4:55 PM,63.5,55.2,74,30.09,10.0,North,4.6,-,0.00,,Mostly Cloudy,10,2012-11-20 22:55:00
5:55 PM,61.2,54.0,77,30.11,10.0,North,5.8,-,N/A,,Overcast,10,2012-11-20 23:55:00
6:55 PM,57.6,53.2,85,30.13,10.0,North,5.8,-,N/A,,Clear,360,2012-11-21 00:55:00
7:55 PM,54.5,52.0,91,30.13,10.0,North,4.6,-,N/A,,Clear,10,2012-11-21 01:55:00
8:55 PM,53.6,52.0,94,30.12,10.0,North,3.5,-,N/A,,Scattered Clouds,10,2012-11-21 02:55:00
9:55 PM,52.9,51.8,96,30.14,10.0,North,5.8,-,N/A,,Overcast,360,2012-11-21 03:55:00
10:55 PM,54.1,52.5,94,30.14,10.0,North,5.8,-,N/A,,Mostly Cloudy,350,2012-11-21 04:55:00
11:55 PM,52.5,51.1,95,30.13,10.0,North,5.8,-,N/A,,Mostly Cloudy,350,2012-11-21 05:55:00